Effective Sunday, March 17, 2024, the National Weather Service National Data Buoy Center will discontinue its Dial-A-Buoy Interactive Voice Response system. For more information, see Service Change Notice 24-06 (PDF).

Station 44007 (LLNR 75) - PORTLAND - 12 NM Southeast of Portland,ME Image indicating link to RSS feed of recent meteorological observations for station 44007

East Hue and Cry Rock Lighted Buoy 1


Conditions at 44007 as of
(6:20 pm EST)
2320 GMT on 02/23/2024:
     

Click on the graph icon in the table below to see a time series plot of the last five days of that observation.

5-day plot - Wind Direction Wind Direction (WDIR): N ( 10 deg true )
5-day plot - Wind Speed Wind Speed (WSPD): 5.8 kts
5-day plot - Wind Gust Wind Gust (GST): 7.8 kts
5-day plot - Wave Height Wave Height (WVHT): 4.9 ft
5-day plot - Dominant Wave Period Dominant Wave Period (DPD): 11 sec
5-day plot - Average Wave Period Average Period (APD): 7.1 sec
5-day plot - Mean Wave Direction Mean Wave Direction (MWD): E ( 90 deg true )
5-day plot - Atmospheric Pressure Atmospheric Pressure (PRES):29.47 in
5-day plot - Air Temperature Air Temperature (ATMP): 37.9 °F
5-day plot - Water Temperature Water Temperature (WTMP): 38.5 °F
5-day plot - Dew Point Dew Point (DEWP): 34.9 °F
5-day plot - Wind Chill Wind Chill (CHILL): 32.9 °F
5-day plot - Wind Speed at 10 Meters Wind Speed at 10 meters (WSPD10M): 5.8 kts
5-day plot - Wind Speed at 20 Meters Wind Speed at 20 meters (WSPD20M): 5.8 kts
5-day plot -  Wind Speed, Wind Gust and Atmospheric Pressure Combined plot of Wind Speed, Gust, and Air Pressure
Supplemental Measurements
Highest 1-minute Wind Speed
Time (EST)5-day plot - 1-Minute Wind Speed WSPD 5-day plot - 1-Minute Wind Direction WDIR
6:13 pm 5.8 kts-
Previous observations
TIME
(EST)
5-day plot - Wind Direction
WDIR
 
5-day plot - Wind Speed
WSPD
kts
5-day plot - Wind Gust
GST
kts
5-day plot - Wave Height
WVHT
ft
5-day plot - Dominant Wave Period
DPD
sec
5-day plot - Average Wave Period
APD
sec
5-day plot - Mean Wave Direction
MWD
 
5-day plot - Atmospheric Pressure
PRES
in
5-day plot - Pressure Tendency
PTDY
in
5-day plot - Air Temperature
ATMP
°F
5-day plot - Water Temperature
WTMP
°F
5-day plot - Dew Point
DEWP
°F
5-day plot - Salinity
SAL
psu
5-day plot - Visibility
VIS
nmi
5-day plot - Tide (above MLLW)
TIDE
ft
2024-02-23 06:10 pmNNE 3.9 7.8 4.9-7.1 E29.47- 37.9 38.5 35.2---
2024-02-23 06:00 pmNNE 3.9 5.8----29.47+0.01 37.9 38.5 35.2---
2024-02-23 05:50 pmNNE 3.9 5.8 5.2 117.3 E29.47- 37.8 38.5 35.2---
2024-02-23 05:40 pm N 3.9 5.8----29.47- 37.8 38.5 35.2---
2024-02-23 05:30 pmNNE 3.9 5.8----29.47- 37.6 38.5 35.1---
2024-02-23 05:20 pm N 5.8 7.8 5.2 117.4ESE29.47- 37.6 38.5 35.2---
2024-02-23 05:10 pm N 3.9 7.8----29.47- 37.6 38.5 35.4---
2024-02-23 05:00 pmNNE 3.9 5.8----29.47+0.01 37.6 38.5 35.4---
2024-02-23 04:50 pmNNE 3.9 5.8 4.9 107.3 E29.47- 37.6 38.5 35.4---
2024-02-23 04:40 pmNNE 3.9 5.8----29.46- 37.4 38.5 35.2---
2024-02-23 04:30 pm N 3.9 5.8----29.46- 37.4 38.5 35.2---
2024-02-23 04:20 pm N 3.9 7.8 4.9 107.2ESE29.47- 37.4 38.5 35.2---
2024-02-23 04:10 pm N 3.9 7.8 4.9-7.2ESE29.47- 37.4 38.5 35.2---
2024-02-23 04:00 pmNNE 3.9 5.8----29.46-0.01 37.4 38.3 35.2---
2024-02-23 03:50 pmNNE 5.8 7.8 6.2 107.9ESE29.46- 37.4 38.3 35.2---
2024-02-23 03:40 pm N 5.8 7.8----29.46- 37.6 38.3 35.4---
2024-02-23 03:30 pm N 5.8 9.7----29.46- 37.6 38.3 35.4---
2024-02-23 03:20 pm N 5.8 7.8 5.6 117.5ESE29.46- 37.9 38.3 35.8---
2024-02-23 03:10 pmNNE 3.9 7.8 5.6-7.5ESE29.46- 37.9 38.3 35.8---
2024-02-23 03:00 pm NE 3.9 5.8----29.46-0.04 37.9- 35.8---
2024-02-23 02:50 pmENE 5.8 7.8----29.46- 37.8 38.1 35.6---
2024-02-23 02:40 pmENE 7.8 9.7----29.45- 37.8 38.1 35.6---
2024-02-23 02:30 pmENE 5.8 7.8----29.46- 37.8 38.1 35.6---
2024-02-23 02:20 pm NE 5.8 7.8 5.6 107.4 SE29.46- 37.8 38.1 35.6---
2024-02-23 02:10 pmNNE 5.8 7.8 5.6-7.4 SE29.46- 37.8 38.1 35.6---
2024-02-23 02:00 pmNNE 5.8 7.8----29.46-0.08 37.8 38.1 35.6---
2024-02-23 01:50 pmNNE 5.8 7.8 5.9 117.5 SE29.46- 37.8 38.1 35.6---
2024-02-23 01:40 pm N 5.8 7.8----29.47- 37.8 38.1 35.6---
2024-02-23 01:30 pm N 5.8 7.8----29.47- 37.8 38.1 35.6---
2024-02-23 01:20 pm N 5.8 7.8 5.2 117.2ESE29.47- 37.8 37.9 35.6---
2024-02-23 01:10 pm N 5.8 7.8 5.2-7.2ESE29.48- 37.9 37.9 35.8---
2024-02-23 01:00 pmNNE 5.8 5.8----29.48-0.08 37.9 37.9 35.8---
2024-02-23 12:50 pmNNE 5.8 5.8 5.6 117.2ESE29.47- 37.9 37.9 35.8---
2024-02-23 12:40 pm NE 5.8 5.8----29.48- 37.8 37.9 35.6---
2024-02-23 12:30 pm NE 3.9 5.8----29.48- 37.8 37.9 35.6---
2024-02-23 12:20 pmNNE 3.9 5.8 5.9 117.3ESE29.49- 37.8 37.9 35.6---
2024-02-23 12:10 pmNNE 3.9 5.8 5.9-7.3ESE29.49- 37.8 37.9 35.6---
2024-02-23 12:00 pmNNE 3.9 5.8----29.49-0.08 37.8 37.9 35.6---
2024-02-23 11:50 amNNE 5.8 7.8 5.6 117.0ESE29.49- 37.6 37.9 35.4---
2024-02-23 11:40 amNNE 5.8 5.8----29.50- 37.6 37.9 35.4---
2024-02-23 11:30 am N 3.9 5.8----29.51- 37.6 37.9 35.4---
2024-02-23 11:20 am NE 3.9 3.9 4.6 126.2ESE29.52- 37.4 37.9 35.2---
2024-02-23 11:10 amENE 1.9 3.9 4.6-6.2ESE29.53- 37.4- 35.2---
2024-02-23 11:00 amESE 1.9 3.9----29.54-0.04 37.4 37.9 35.2---
2024-02-23 10:50 am N 1.9 3.9 5.6 116.8ESE29.54- 37.4 37.9 35.2---
2024-02-23 10:40 amNNW 1.9 5.8----29.54- 37.4 37.9 35.2---
2024-02-23 10:30 am NW 3.9 5.8----29.55- 37.4 37.9 35.2---
2024-02-23 10:20 amWNW 1.9 5.8 5.9 126.8ESE29.55- 37.6 37.9 35.4---
2024-02-23 10:10 amWSW 3.9 5.8 5.9-6.8ESE29.55- 37.9 37.9 35.8---
2024-02-23 10:00 am SW 3.9 5.8----29.56-0.02 37.9 37.9 35.8---
2024-02-23 09:50 amSSW 5.8 7.8 5.9 116.6ESE29.56- 37.9 37.9 35.8---
2024-02-23 09:40 amSSW 5.8 7.8----29.57- 37.9 37.9 35.8---
2024-02-23 09:30 amSSW 7.8 9.7----29.57- 37.9 37.9 35.8---
2024-02-23 09:20 amSSW 7.8 9.7 6.2 126.7ESE29.57- 37.9 37.9 35.8---
2024-02-23 09:10 amSSW 7.8 9.7 6.2-6.7ESE29.57- 37.9 37.9 35.8---
2024-02-23 09:00 amSSW 7.8 9.7----29.57-0.02 37.9 37.9 35.6---
2024-02-23 08:50 am SW 7.8 11.7 6.9 127.1ESE29.57- 37.9 37.9 35.6---
2024-02-23 08:40 am SW 9.7 11.7----29.57- 37.9 37.9 35.6---
2024-02-23 08:30 amSSW 9.7 13.6----29.57- 37.9 37.9 35.6---
2024-02-23 08:20 amSSW 11.7 13.6 7.2 127.3 E29.58- 37.9 37.9 35.6---
2024-02-23 08:10 amSSW 11.7 13.6 7.2-7.3 E29.58- 37.8 37.9 35.4---
2024-02-23 08:00 am SW 9.7 13.6----29.58-0.02 37.8 37.9 35.4---
2024-02-23 07:50 am SW 9.7 11.7 7.2 127.0ESE29.58- 37.4 37.9 34.9---
2024-02-23 07:40 am SW 9.7 13.6----29.58- 37.2 38.1 34.7---
2024-02-23 07:30 am SW 11.7 13.6----29.58- 37.0 38.1 34.5---
2024-02-23 07:20 am SW 11.7 15.5 7.9 127.0ESE29.59- 37.0 38.1 34.3---
2024-02-23 07:10 am SW 11.7 17.5 7.9-7.0ESE29.58- 36.9 38.1 34.2---
2024-02-23 07:00 amSSW 13.6 15.5----29.58-0.03 36.9 38.1 34.0---
2024-02-23 06:50 am SW 13.6 17.5 7.2 116.3 E29.58- 36.9 38.1 34.0---
2024-02-23 06:40 am SW 13.6 17.5----29.58- 36.9 38.1 34.0---
2024-02-23 06:30 amSSW 15.5 19.4----29.59- 36.7 38.3 33.6---
2024-02-23 06:20 amSSW 15.5 19.4 7.9 116.6 E29.59- 36.7 38.3 33.6---
2024-02-23 06:10 amSSW 17.5 21.4----29.59- 36.5 38.3 33.4---
2024-02-23 06:00 amSSW 17.5 23.3----29.59-0.03 36.7 38.3 33.6---
2024-02-23 05:50 amSSW 19.4 23.3 8.9 126.8ESE29.59- 36.7 38.3 33.6---
2024-02-23 05:40 amSSW 19.4 23.3----29.59- 36.7 38.3 33.8---
2024-02-23 05:30 amSSW 19.4 25.3----29.60- 36.9 38.3 34.0---
2024-02-23 05:20 amSSW 21.4 27.2 8.5 126.9 E29.60- 36.9 38.3 33.8---
2024-02-23 05:10 amSSW 21.4 25.3 8.5-6.9 E29.60- 36.9 38.3 33.8---
2024-02-23 05:00 amSSW 21.4 25.3----29.60-0.04 37.2 38.3 34.0---
2024-02-23 04:50 amSSW 19.4 23.3 9.5 117.3ESE29.60- 37.4 38.3 34.2---
2024-02-23 04:40 amSSW 19.4 25.3----29.61- 37.2 38.3 33.8---
2024-02-23 04:30 amSSW 19.4 25.3----29.61- 37.2 38.3 33.6---
2024-02-23 04:20 amSSW 19.4 25.3 9.5 117.2 E29.61- 37.4 38.3 33.6---
2024-02-23 04:10 amSSW 19.4 25.3 9.5-7.2 E29.61- 37.4 38.3 33.6---
2024-02-23 04:00 amSSW 19.4 23.3----29.61-0.06 37.4 38.3 33.4---
2024-02-23 03:50 amSSW 19.4 23.3 8.9 117.0 E29.61- 37.4 38.3 33.4---
2024-02-23 03:40 amSSW 19.4 23.3----29.61- 37.4 38.3 33.3---
2024-02-23 03:30 amSSW 17.5 23.3----29.61- 37.4 38.3 33.4---
2024-02-23 03:20 amSSW 19.4 23.3 9.2 117.3 E29.62- 37.4 38.3 33.3---
2024-02-23 03:10 amSSW 17.5 23.3----29.62- 37.2 38.3 32.9---
2024-02-23 03:00 amSSW 17.5 23.3----29.62-0.06 37.0 38.3 33.1---
2024-02-23 02:50 amSSW 17.5 23.3 9.2 117.3ESE29.63- 37.0 38.3 33.1---
2024-02-23 02:40 amSSW 19.4 23.3----29.63- 36.9 38.3 32.9---
2024-02-23 02:30 amSSW 19.4 23.3----29.63- 36.7 38.3 32.7---
2024-02-23 02:20 amSSW 19.4 21.4 8.9 127.2ESE29.64- 36.9 38.3 32.4---
2024-02-23 02:10 amSSW 17.5 21.4----29.65- 36.9 38.3 32.4---
2024-02-23 02:00 amSSW 17.5 21.4----29.65-0.05 36.9 38.3 32.4---
2024-02-23 01:50 amSSW 17.5 21.4 8.5 127.3 E29.65- 36.7 38.3 32.2---
2024-02-23 01:40 amSSW 17.5 21.4 8.5-7.3 E29.65- 36.9 38.1 32.2---
2024-02-23 01:30 am SW 17.5 23.3----29.66- 37.0 38.1 31.8---
2024-02-23 01:20 am SW 15.5 21.4 8.5 127.3ESE29.67- 36.9 38.1 32.2---
2024-02-23 01:10 am SW 13.6 17.5 8.5-7.3ESE29.67- 36.7 38.3 32.0---
2024-02-23 01:00 am SW 15.5 19.4----29.67-0.05 36.3 38.3 32.0---
2024-02-23 12:50 am SW 17.5 21.4 7.9 126.8ESE29.67- 36.0 38.3 32.4---
2024-02-23 12:40 am SW 19.4 23.3----29.68- 36.0 38.3 32.5---
2024-02-23 12:30 am SW 19.4 23.3----29.68- 35.8 38.1 32.4---
2024-02-23 12:20 am SW 19.4 25.3 7.5 116.8ESE29.68- 36.5 38.1 32.4---
2024-02-23 12:10 am SW 19.4 25.3 7.5-6.8ESE29.68- 37.0 38.1 31.6---
2024-02-23 12:00 am SW 17.5 23.3----29.69-0.05 37.6 37.9 31.6---
2024-02-22 11:50 pm SW 17.5 23.3 7.2 116.5ESE29.69- 37.8 37.9 31.6---
2024-02-22 11:40 pm SW 19.4 23.3----29.69- 37.8 37.9 31.6---
2024-02-22 11:30 pm SW 17.5 21.4----29.69- 37.8 37.9 32.0---
2024-02-22 11:20 pmSSW 15.5 21.4 6.9 116.4ESE29.69- 37.8 37.9 32.4---
2024-02-22 11:10 pmSSW 15.5 19.4 6.9-6.4ESE29.69- 37.6 37.9 32.2---
2024-02-22 11:00 pmSSW 17.5 21.4----29.70-0.07 37.6 37.9 32.2---
2024-02-22 10:50 pmSSW 17.5 23.3 6.9 116.5 SE29.70- 37.6 37.9 32.2---
2024-02-22 10:40 pmSSW 17.5 21.4----29.70- 37.8 37.9 32.5---
2024-02-22 10:30 pmSSW 17.5 23.3----29.71- 37.8 37.9 32.4---
2024-02-22 10:20 pmSSW 17.5 23.3 6.6 126.6ESE29.71- 37.9 37.9 32.5---
2024-02-22 10:10 pmSSW 15.5 19.4----29.71- 37.8 37.9 32.7---
2024-02-22 10:00 pmSSW 13.6 15.5----29.72-0.07 37.8 37.8 32.9---
2024-02-22 09:50 pmSSW 13.6 17.5 6.2 116.4ESE29.72- 37.8 37.9 32.9---
2024-02-22 09:40 pmSSW 13.6 17.5----29.73- 37.6 37.9 32.7---
2024-02-22 09:30 pmSSW 13.6 17.5----29.73- 37.6 37.9 32.7---
2024-02-22 09:20 pmSSW 13.6 17.5 6.2 106.6ESE29.73- 37.4 37.9 32.4---
2024-02-22 09:10 pmSSW 13.6 15.5----29.73- 37.4 37.9 32.0---
2024-02-22 09:00 pm S 13.6 15.5----29.74-0.07 37.4 37.9 31.6---
2024-02-22 08:50 pm S 13.6 15.5 6.6 106.8ESE29.75- 37.4 37.9 31.5---
2024-02-22 08:40 pm S 13.6 17.5----29.75- 37.2 37.9 31.1---
2024-02-22 08:30 pmSSW 13.6 17.5----29.75- 37.2- 31.1---
2024-02-22 08:20 pm S 13.6 17.5 7.2 106.8 E29.76- 37.2 37.9 31.3---
2024-02-22 08:10 pm S 15.5 17.5 7.2-6.8 E29.76- 37.2 37.9 31.1---
2024-02-22 08:00 pm S 15.5 19.4----29.77-0.06 37.2 37.9 31.1---
2024-02-22 07:50 pm S 15.5 19.4 6.9 116.8ESE29.78- 37.2 37.9 30.2---
2024-02-22 07:40 pm S 15.5 19.4----29.78- 37.0 37.9 30.4---
2024-02-22 07:30 pm S 13.6 19.4----29.78- 36.9 37.9 30.2---
2024-02-22 07:20 pm S 15.5 17.5 6.6 116.9 E29.78- 36.5 37.9 29.5---
2024-02-22 07:10 pm S 13.6 17.5 6.6-6.9 E29.78- 36.3 37.9 29.5---
2024-02-22 07:00 pm S 15.5 19.4----29.79-0.06 36.1 38.1 28.9---
2024-02-22 06:50 pm S 15.5 17.5 6.2 96.6 E29.79- 36.1 38.1 28.9---
2024-02-22 06:40 pm S 15.5 17.5----29.80- 36.0 38.1 28.9---
2024-02-22 06:10 pm S 13.6 17.5 5.6-6.2ESE29.81- 35.4 38.1 27.9---
2024-02-22 06:00 pm S 13.6 15.5----29.81-0.07 35.4 38.3 28.4---
2024-02-22 05:50 pm S 13.6 17.5 5.9 96.4ESE29.81- 35.2 38.3 28.0---

Detailed Wave Summary
for 44007 as of (6:10 pm EST)
2310 GMT on 02/23/2024:

These wave data are displayed in rounded times.

     

Click on the graph icon in the table below to see a time series plot of the last five days of that observation.

5-day plot - Significant Wave Height Significant Wave Height (WVHT): 4.9 ft
5-day plot - Swell Height Swell Height (SwH): 4.9 ft
5-day plot - Swell Period Swell Period (SwP): 10.8 sec
5-day plot - Swell Direction Swell Direction (SwD): E
5-day plot - Wind Wave Height Wind Wave Height (WWH): 1.0 ft
5-day plot - Wind Wave Period Wind Wave Period (WWP): 3.7 sec
5-day plot - Wind Wave Direction Wind Wave Direction (WWD):SSE
5-day plot - Wave Steepness Wave Steepness (STEEPNESS): SWELL
5-day plot - Average Wave Period Average Wave Period (APD): 7.1 sec
Previous observations
TIME
(EST)
5-day plot - Wave Height
WVHT
ft
5-day plot - Swell Height
SwH
ft
5-day plot - Swell Period
SwP
sec
5-day plot - Swell Direction
SwD
 
5-day plot - Wind Wave Height
WWH
ft
5-day plot - Wind Wave Period
WWP
sec
5-day plot - Wind Wave Direction
WWD
 
5-day plot - Wave Steepness
STEEPNESS
 
5-day plot - Average Wave Period
APD
sec
2024-02-23 05:40 pm 5.2 5.2 10.8 E 1.0 4.0 SSE SWELL 7.3
2024-02-23 05:10 pm 5.2 4.9 10.8ESE 1.0 3.8 SSE SWELL 7.4
2024-02-23 04:40 pm 4.9 4.9 10.0 E 1.0 4.0 SSE SWELL 7.3
2024-02-23 04:10 pm 4.9 4.9 10.0ESE 1.3 4.0 SSE SWELL 7.2
2024-02-23 03:40 pm 6.2 6.2 10.0ESE 1.0 3.7 SSE SWELL 7.9
2024-02-23 03:10 pm 5.6 5.6 10.8ESE 1.3 3.8 SSE SWELL 7.5
2024-02-23 02:10 pm 5.6 5.6 10.0 SE 1.3 4.0 SSE SWELL 7.4
2024-02-23 01:40 pm 5.9 5.6 10.8 SE 1.0 3.6 SSE SWELL 7.5
2024-02-23 01:10 pm 5.2 5.2 10.8ESE 1.3 3.4 SSE SWELL 7.2
2024-02-23 12:40 pm 5.6 5.6 11.4ESE 1.3 4.0 SSE SWELL 7.2
2024-02-23 12:10 pm 5.9 5.6 11.4ESE 1.3 4.0 S SWELL 7.3
2024-02-23 11:40 am 5.6 5.6 11.4ESE 1.3 3.4 S SWELL 7.0
2024-02-23 11:10 am 4.6 4.6 12.1ESE 1.3 3.8 S SWELL 6.2
2024-02-23 10:40 am 5.6 5.2 11.4ESE 1.3 3.6 S SWELL 6.8
2024-02-23 10:10 am 5.9 5.9 12.1ESE 1.3 3.7 SSE SWELL 6.8
2024-02-23 09:40 am 5.9 5.6 11.4ESE 1.6 3.2 S SWELL 6.6
2024-02-23 09:10 am 6.2 5.9 12.1ESE 1.6 4.0 S SWELL 6.7
2024-02-23 08:40 am 6.9 6.6 12.1ESE 2.0 4.2 S SWELL 7.1
2024-02-23 08:10 am 7.2 6.6 12.1 E 2.6 4.5 S SWELL 7.3
2024-02-23 07:40 am 7.2 6.9 12.1ESE 2.6 4.8 S SWELL 7.0
2024-02-23 07:10 am 7.9 6.9 12.1ESE 3.9 5.3 S SWELL 7.0
2024-02-23 06:40 am 7.2 5.9 11.4 E 4.6 5.3 S SWELL 6.3
2024-02-23 06:10 am 7.9 6.6 11.4 E 4.6 5.6 S SWELL 6.6
2024-02-23 05:40 am 8.9 7.2 12.1ESE 4.9 5.0 S SWELL 6.8
2024-02-23 05:10 am 8.5 7.2 12.1 E 4.9 5.3 S SWELL 6.9
2024-02-23 04:40 am 9.5 8.5 11.4ESE 4.3 5.9 SSE SWELL 7.3
2024-02-23 04:10 am 9.5 8.5 11.4 E 4.6 5.9 SSE SWELL 7.2
2024-02-23 03:40 am 8.9 7.5 11.4 E 4.6 5.9 SSE SWELL 7.0
2024-02-23 03:10 am 9.2 8.2 10.8 E 4.6 5.9 SSE AVERAGE 7.3
2024-02-23 02:40 am 9.2 8.2 11.4ESE 3.9 6.2 SSE SWELL 7.3
2024-02-23 02:10 am 8.9 7.5 12.1ESE 4.3 5.6 S SWELL 7.2
2024-02-23 01:40 am 8.5 7.5 12.1 E 3.9 5.6 S SWELL 7.3
2024-02-23 01:10 am 8.5 7.5 12.1ESE 3.9 5.0 S SWELL 7.3
2024-02-23 12:40 am 7.9 6.9 12.1ESE 4.3 5.6 S SWELL 6.8
2024-02-23 12:10 am 7.5 6.6 11.4ESE 3.9 7.1 ESE SWELL 6.8
2024-02-22 11:40 pm 7.2 5.9 11.4ESE 4.3 5.0 S SWELL 6.5
2024-02-22 11:10 pm 6.9 5.9 11.4ESE 3.6 4.8 S SWELL 6.4
2024-02-22 10:40 pm 6.9 5.9 11.4 SE 3.6 4.8 S SWELL 6.5
2024-02-22 10:10 pm 6.6 5.6 12.1ESE 3.6 4.3 S SWELL 6.6
2024-02-22 09:40 pm 6.2 5.2 10.8ESE 3.3 6.7 ESE SWELL 6.4
2024-02-22 09:10 pm 6.2 5.6 10.0ESE 3.0 4.0 S SWELL 6.6
2024-02-22 08:40 pm 6.6 5.9 10.0ESE 3.0 6.2 SE AVERAGE 6.8
2024-02-22 08:10 pm 7.2 6.6 10.0 E 3.0 3.8 S AVERAGE 6.8
2024-02-22 07:40 pm 6.9 6.2 10.8ESE 2.6 3.7 S SWELL 6.8
2024-02-22 07:10 pm 6.6 6.2 11.4 E 2.3 5.6 SE SWELL 6.9
2024-02-22 06:40 pm 6.2 5.6 9.1 E 2.6 5.9 SE AVERAGE 6.6
2024-02-22 06:10 pm 5.6 4.9 10.0ESE 2.6 6.2 ESE SWELL 6.2

Plot of wave energy versus frequency (and period)